Regional Weather Roundup
Issued by NWS State College, PA

Current Version | Previous Version | Text Only | Print | Product List | Glossary On
Versions: 1 2 3 4 5 6 7 8 9 10 11 12 13 14 15 16 17 18 19 20 21 22 23 24 25 26 27 28 29 30 31 32 33 34 35 36 37 38 39 40 41 42 43 44 45 46 47 48 49 50
000
ASUS41 KCTP 300310
RWRCTP

REGIONAL WEATHER ROUNDUP
NATIONAL WEATHER SERVICE STATE COLLEGE PA
1100 PM EDT MON JUN 29 2015

Note: "fair" indicates few or no clouds below 12,000 feet with no
significant weather and/or obstructions to visibility.

* = STATION THAT DOES NOT REPORT PRECIPITATION /E.G. RAIN...SNOW...ETC/
    THUNDER OR FOG.

PAZ002>004-007>009-013>016-020>023-029>032-300400-
WESTERN PENNSYLVANIA

CITY           SKY/WX    TMP DP  RH WIND       PRES   REMARKS
ERIE           CLOUDY    67  58  72 SE5       29.89R
MEADVILLE      CLOUDY    64  54  69 VRB6      29.90S
FRANKLIN*      CLOUDY    61  54  77 E8        29.92F
NEW CASTLE     MOCLDY    62  59  90 CALM      29.88F
BEAVER COUNTY  NOT AVBL
BUTLER*        CLOUDY    61  57  88 E10       29.90F
PITTSBURGH INT CLOUDY    62  59  90 SE7       29.87F
PITTSBURGH     CLOUDY    62  55  77 E9        29.87S
INDIANA*       CLOUDY    64  61  88 CALM      29.96R
LATROBE        NOT AVBL
WASHINGTON CO* NOT AVBL
$$

PAZ004>006-010>012-017>019-024>028-033>037-041-042-045-046-049>053-300400-
CENTRAL PENNSYLVANIA

CITY           SKY/WX    TMP DP  RH WIND       PRES   REMARKS
BRADFORD       CLOUDY    59  57  93 CALM      29.96S
DUBOIS         LGT RAIN  62  57  83 E5        29.94F
CLEARFIELD     LGT RAIN  62  59  90 N5        29.96S
JOHNSTOWN      CLOUDY    65  53  65 SE9       29.94F
ALTOONA        CLOUDY    69  54  58 SE8       29.94F
STATE COLLEGE  CLOUDY    64  59  85 CALM      29.95F
WILLIAMSPORT   CLOUDY    65  61  87 CALM      29.94R
SELINSGROVE    CLOUDY    67  63  87 CALM      29.95S
FT INDIANTOWN  CLOUDY    65  60  85 NE2       29.94S
CAPITAL CITY   PTCLDY    75  52  44 S6        29.93S
HARRISBURG     MOCLDY    69  61  75 SE3       29.92F
YORK           PTCLDY    68  57  68 S3        29.94F
$$

PAZ038>040-043-044-047-048-054-055-060>062-067>071-300400-
EASTERN PENNSYLVANIA

CITY           SKY/WX    TMP DP  RH WIND       PRES   REMARKS
SCRANTON       CLOUDY    67  61  81 CALM      29.95S
MOUNT POCONO   CLOUDY    64  56  75 W3        29.99S
ALLENTOWN      PTCLDY    66  57  72 SW5       29.95R
QUAKERTOWN*    CLEAR     63  59  88 CALM      29.97S
READING        PTCLDY    71  57  61 S3        29.94S
LANCASTER      PTCLDY    66  59  78 NE3       29.95S
COATESVILLE    PTCLDY    66  59  77 CALM      29.97F
POTTSTOWN      PTCLDY    65  60  84 CALM      29.97S
BLUE BELL      CLEAR     63  61  94 CALM      29.96R
DOYLESTOWN     CLEAR     65  57  75 S3        29.96S
WILLOW GROVE   NOT AVBL
NORTH PHILA    CLEAR     72  56  57 S5        29.97S
PHILADELPHIA   CLEAR     74  59  59 S8        29.96S
$$



USA.gov is the U.S. government's official web portal to all federal, state and local government web resources and services.